MOLNIYA 1-29

Last updated on Sun Jun 25 2023 00:03:01 GMT+0000 (Coordinated Universal Time)

1 07780U 75036A 23175.06236710 .00000362 00000+0 -10545+0 0 9991 2 07780 63.4243 175.6977 6747735 286.6934 13.4237 2.00595903353100
UTC large
Height (km)
Speed (km/s)
/
Latitude / Longitude
Inclination (degrees)
Orbital Period (minutes)
Azimuth
Elevation
Range (km)
Doppler Factor

Next 0 passes for location: London (51.5072 / 0.1276)

Sorry there are no passes over London.